Погода Узловая

Погода Узловая : погода сейчас, прогноз погоды и архив. Всё, что Вы хотите узнать о погоде Узловая!

Поиск расширенной информации на нашем сайте:

Другие новости

Новости СМИ2

Главная страница сайта

Новости сайта

03.07.2017

Напоминаем, что на нашем специализированном сайте Метеоцентр.Азия вы можете получить высокодетализированные автоматические прогнозы погоды по пунктам России, СНГ и мира в авиационном формате (включающие направление и скорость ветра, видимость, явления погоды, количество и форму облачности, нижнюю и верхнюю границу облачности).

Рекомендуем: кровмаркет отзывы

Погода Узловая - сегодня

Время (UTC), дата Ветер
(°,м/с) 
Видим.   Явления Облачность Т
(°С)
Тd
(°С)
f(%) Тe
(°С)
Pmin
(гПа)
dP
(гПа)
Po
(мм)
O2
(г/м3)
Тmin Tmax R s Состояние
почвы
12 16.04.18 260 (З) 20000 м    4/3 300 м кучево-дожд., верхняя 
[Cb cap|Ci sp]
+19 +3.2 35 +20  1018.5  -1.5  744  280           
15 16.04.18 270 (З) 20000 м    3/0 средняя, верхняя 
[Ac trans|Ci sp]
+18.1 +4.4 40 +19  1017.4  -1.1  743  280           
00 17.04.18 250 (З) 20000 м    9/0 средняя, верхняя 
[Ac trans|Ci sp]
+9 +5.2 77 +10  1018  0.1  743  289           
09 17.04.18 260 (З) 20000 м    9/0 верхняя 
[Ci sp]
+19.9 +3.5 34 +20  1016.6  -0.3  742  278           
12 17.04.18 230 (ЮЗ) 20000 м    9/3 300 м кучево-дожд., верхняя 
[Cb cap|Ci sp]
+21.7 +3.3 30 +22  1015.8  -0.6  742  276           
15 17.04.18 250 (З) 20000 м    9/4 1000 м средняя 
[Sc|Ac trans]
+18.9 +4.7 39 +20  1015.4  -0.6  741  279           
21 17.04.18 210 (ЮЗ) 20000 м    9/0 средняя 
[Ac trans]
+14 +6.1 59 +15  1014.6  -0.9  741  283           
00 18.04.18 220 (ЮЗ) 20000 м    9/9 600 м 
[Sc]
+11.4 +3 56 +12  1013.8  -1.1  740  286           
09 18.04.18 230 (ЮЗ) 10 км  {ливн. осадки}  10/10 300 м кучево-дожд. 
[Cb cap]
+10.1 +7.7 85 +10  1009.4  -1.6  737  285           
18 18.04.18 280 (З) 3{10}  10 км  слаб. ливневой дождь  10/10 300 м кучево-дожд. 
[Cb cap]
+6.3 +4.8 90 +5  1009.7  -0.4  736  289    +10.2     
21 18.04.18 290 (З) 10 км  слаб. дождь{ливн. осадки}  10/8 300 м средняя 
[Frnb|As op]
+5.7 +3.9 88 +4  1007.5  -2.1  735  289           
18 19.04.18 010 (С) 4-10{13}  10 км  слаб. дождь  10/9 200 м средняя 
[Frnb|As op]
+6.9 +4.6 85 +6  1006.9  2.3  734  288    +8.1     
06 20.04.18 360 (С) 4{11}  20000 м    3/0 верхняя 
[Ci sp]
+9 +0.4 55 +8  1012.1  2.1  738  288  +5    0.3    мокрая 
09 20.04.18 020 (С) 4{11}  20000 м    6/3 300 м кучево-дожд., верхняя 
[Cb cap|Ci sp]
+12.9 -0.5 40 +12  1013.3  1.6  740  285           
21 20.04.18 260 (З) 20000 м    9/9 600 м 
[Sc]
+6.8 +0.1 62 +8  1013.4  -1.1  739  291           
00 21.04.18 230 (ЮЗ) 20000 м    6/0 средняя 
[Ac trans]
+4.9 -0.7 67 +5  1011.5  -2  738  292           
18 21.04.18 260 (З) 4-10{15}  10 км  {ливн. осадки}  9/9 300 м кучево-дожд. 
[Cb cap]
+11.4 +8.8 84 +11  991.1  0.2  723  278    +19.9     
06 22.04.18 290 (З) 6-15{15}  20000 м  {ливн. осадки}  9/9 300 м кучево-дожд. 
[Cb cap]
+5.9 -0.7 63 +4  997.6  1.3  728  287  +5.5    0.3     
21 22.04.18 340 (С) 4000 м  слаб. ливневой снег  10/10 300 м кучево-дожд. 
[Cb cap]
+0.4 -2.1 83 1009.2  1.6  736  296           
09 23.04.18 310 (СЗ) 4{11}  20000 м    6/6 600 м 
[Cu hum]
+5.4 -10.1 32 +4  1012.9  0.5  739  293           
21 23.04.18 тихо ()   20000 м    ясно 
-0.9 -8.1 58 -1  1015.1  0.2  740  300           
00 24.04.18 тихо ()   20000 м    ясно 
-3.8 -6.5 81 -4  1015.8  0.4  740  303           
09 24.04.18 250 (З) 20000 м    4/0 верхняя 
[Ci]
+9.9 -9.7 24 +9  1014.2  -0.8  740  289           
15 24.04.18 240 (ЮЗ) 20000 м    8/0 средняя, верхняя 
[Ac trans|Ci sp]
+11 -7.9 26 +11  1011.5  -1  738  287           
21 24.04.18 230 (ЮЗ) 20000 м    9/9 600 м 
[Sc]
+7.1 -0.5 58 +7  1011.2  -0.5  738  290           
Время (UTC), дата Ветер
(°,м/с) 
Видим.   Явления Облачность Т
(°С)
Тd
(°С)
f(%) Тe
(°С)
Pmin
(гПа)
dP
(гПа)
Po
(мм)
O2
(г/м3)
Тmin Tmax R s Состояние
почвы

Для получения пояснительной информации подведите курсор к названию столбца.

ПОГОДА Узловая - архив

Всё, что Вы хотите узнать о погоде Узловая - удобно и подробно!

Выберите нужную дату (начиная с 1 января 2015* года) и нажмите кнопку "Найти".
Будут отображены архивные сводки погоды по пункту Узловая, начиная с указанной даты.


Отображать данные в формате CSV (для использования в таблицах Excel)


Внимание! Наш архив погоды предназначен исключительно для личного некоммерческого использования в познавательных целях. Если Вам необходимы официальные справки о состоянии погоды (для производственных, юридических, коммерческих и т.п. целей), обращайтесь в органы Росгидромета.

*Примечание: данная дата относится к архиву по метеостанциям СССР (Россия, СНГ, Балтия).
Архив по метеостанциям Зарубежной Европы и Азии (кроме Китая) хранится 10 дней, по другим регионам земного шара (Китай, Африка, Америка, Австралия, Океания) - 1 день.

Узловая - район местоположения метеостанции


Название, широта, долгота, высота метеостанции:
Узловая 54°ш. 38.1°д. 231 м над ур. моря [Российская Федерация]

Дополнительная информация

В oтличие oт бoльшинства пoгoдных сайтoв мы публикуем пoдрoбную метеoинфoрмацию в детальнoм прoфессиoнальнoм фoрмате.

Характеристики температуры и влажнoсти вoздуха измеряются на высoте 2 м в тени вдали oт зданий и деревьев.
Скoрoсть ветра измеряется на высoте 10 м (на урoвне рoста челoвека скoрoсть ветра ниже в 1.5-2 раза). Если метеoстанция нахoдится в гoрoде или в лесу, тo скoрoсть ветра занижена на 2-4 м/с пo сравнению с oткрытым местoм. Скoрoсть ветра над акватoриями крупных рек и oзёр, а также на вершинах хoлмoв на 2-5 м/с выше, чем в oбычных услoвиях.
Атмoсфернoе давление в разных тoчках местнoсти мoжет значительнo oтличаться oт давления на метеoстанции, в зависимoсти oт услoвий рельефа (при пoдъёме на 10 м давление пoнижается примернo на 1 мм рт.ст.).